Showing default

ALISIO-1, 58562

Orbit data source: Space-Track

ALISIO-1, 58562 is a payload satellite owned by IAC (ES) in SSO that was launched on Fri, 01 Dec 2023 UTC via an FALCON 9 launch vehicle from the Air Force Western Test Range (AFWTR). Payload-class satellites include a variety of spacecraft equipped with specific instruments for various scientific and technological missions. These include communications satellites like Starlink; space stations such as the ISS; scientific satellites like the Hubble; Earth observation satellites from companies like Planet Labs, Umbra, and HawkEye 360; GPS; miniature CubeSats for education and research; and military/defense satellites.

Loading next visibility...
Identifier
58562, 2023-185M
Orbit
SSO
Last TLE update
14 hours ago
Origin
Manufacturer
IAC
Mission
Operational Amateur Imaging
Bus & Motor
CUBESAT 6U, Unknown motor
Mass
10 kg wet, 10 kg dry
Launch date (UTC)
2023-12-01 (1 year ago)
Launch vehicle
FALCON 9
Launch site
Air Force Western Test Range (AFWTR)
Object type
Payload
Rocket body
Debris
Shape & HBR
Box, 0.3 m
Radar Cross Section
0.080 m², Medium (>0.1 m² and < 1m²)

Expand to show TLE details & history

TLE from 14 hours ago
0 ALISIO-1
1 58562U 23185M   25130.93590309  .00004264  00000-0  24674-3 0  9996
2 58562  97.5788 201.6390 0005105 262.6225  97.4426 15.12776543 77657
Epoch: 2025-05-10T22:27Z
Definitive object data (Epoch: 2025-05-10T22:27:42.026Z)
Latitude
-0.00002°
Longitude
-4.25666°
Altitude
531.271 km
Speed
7.597 km/s
True Right ascension
13h 26m 33s
True Declination
0° 00' 00"
Sunlit
Object was in full shadow at TLE epoch
Visualization TLE readout
Latitude
29.71627°
Longitude
-7.99126°
Altitude
533.792 km
Speed
7.597 km/s
Apparent Right ascension
11h 24m 37s
Apparent Declination
-4° 00' 51"
Sunlit
Object is in full shadow
Visualization observer readout
Local Sidereal Time
21:10:37
Azimuth
311.085° NW
Elevation
-43.072°
Doppler factor
1
Orbital elements
Apogee altitude
528.244 km
Perigee altitude
521.196 km
Semi-major axis
6,902.857 km
Eccentricity
0.0005105
Inclination
97.5788°
RAAN
201.639°
Arg. of periapsis
262.6225°
True anomaly
97.5006°
Mean anomaly
97.4426°
Eccentric anomaly
97.4716°
Mean motion
3.78442 °/min
BSTAR
0.00024674
Orbital period
95.13 mins
Loading maneuver chart data...
Loading SW <> Apogee altitude chart data...
Loading historical data...
Loading historical data...
Loading historical data...
Loading historical data...
Loading historical data...
Loading historical data...
Loading historical data...

ALISIO-1 Visibility forecast

Observer location: undefined°, undefined°

Span
Click to sort rows by Start time (UTC) header in descending order
Start Az.
Max El. time (UTC)
Max El. Az.
Max El.
End time (UTC)
End Az.
4 mins2025-05-11 16:30:50.358Z60.378° ENE2025-05-11 16:32:50.358Z92.899° ESE13.951°2025-05-11 16:34:50.358Z125.315° SE
5 mins2025-05-11 18:04:50.358Z345.502° N2025-05-11 18:06:50.358Z302.343° NW29.66°2025-05-11 18:09:50.358Z227.593° WSW
6 mins2025-05-12 04:45:50.358Z170.327° S2025-05-12 04:47:50.358Z196.435° SSW44.374°2025-05-12 04:51:50.358Z346.564° N
|